Date String (YYYY-MM-DD hh:mm:ss) UTC,Instrument flags,absolute air pressure of the measurement (hPa),sample flow rate (lpm),inlet stack bypass flow (lpm),air temperature of the measurement (°C),ambient temperature measured by the external sensor (°C),aerosol sample conditioner tube jacket temperature (°C),OPC LED temperature (°C),internal box temperature (°C),relative humidity of the measurement (%),span deviation,mass concentration of particles derived from Lorenz-Mie calculation of OPC scattering (μg/m³),mass concentration of particles derived from Lorenz-Mie calculation of OPC scattering (μg/m³),mass concentration of particles derived from Lorenz-Mie calculation of OPC scattering (μg/m³)
DateTimeUTC,F1_M11,P_M11,Q1_M11,Q2_M11,T1_M11,T2_M11,T3_M11,T4_M11,T5_M11,U1_M11,ZSPAN_M11,X0_M11,X2_M11,X1_M11
2023-11-25 19:00:00,SystemResetWarning,0828.4,4.99,000.00,018.8,017.9,000.0,027.2,020.0,12.1,0000.1,0008.17,0005.87,0005.61
2023-11-25 19:01:00,SystemResetWarning,0828.3,5.00,000.00,018.8,017.9,000.0,027.2,020.0,12.2,0000.2,0008.18,0005.88,0005.61
2023-11-25 19:02:00,SystemResetWarning,0828.3,5.01,000.00,018.8,017.9,000.0,027.2,020.0,12.2,0000.0,0008.19,0005.89,0005.62
2023-11-25 19:03:00,SystemResetWarning,0828.3,5.00,000.00,018.8,017.9,000.0,027.2,020.0,12.2,0000.1,0008.19,0005.90,0005.63
2023-11-25 19:04:00,SystemResetWarning,0828.3,5.00,000.00,018.8,017.8,000.0,027.2,020.0,12.2,0000.4,0008.15,0005.90,0005.65
2023-11-25 19:05:00,SystemResetWarning,0828.3,5.00,000.00,018.8,017.8,000.0,027.2,020.0,12.3,0000.7,0008.10,0005.88,0005.66
2023-11-25 19:06:00,SystemResetWarning,0828.3,4.99,000.00,018.8,017.8,000.0,027.2,020.0,12.3,0000.5,0007.96,0005.84,0005.65
2023-11-25 19:07:00,SystemResetWarning,0828.3,4.99,000.00,018.8,017.8,000.0,027.2,020.0,12.4,0000.7,0007.93,0005.83,0005.65
2023-11-25 19:08:00,SystemResetWarning,0828.3,4.99,000.00,018.8,017.8,000.0,027.2,020.0,12.4,0001.2,0007.92,0005.84,0005.65
2023-11-25 19:09:00,SystemResetWarning,0828.3,5.00,000.00,018.8,017.7,000.0,027.2,020.0,12.6,0001.8,0007.83,0005.84,0005.65
2023-11-25 19:10:00,SystemResetWarning,0828.3,5.00,000.00,018.8,017.7,000.0,027.2,020.0,12.7,0002.0,0007.78,0005.80,0005.63
2023-11-25 19:11:00,SystemResetWarning,0828.3,5.00,000.00,018.8,017.7,000.0,027.2,020.0,12.6,0002.6,0007.80,0005.79,0005.62
2023-11-25 19:12:00,SystemResetWarning,0828.3,5.00,000.00,018.8,017.7,000.0,027.2,020.0,12.7,0003.0,0007.89,0005.83,0005.64
2023-11-25 19:13:00,SystemResetWarning,0828.3,5.00,000.00,018.7,017.7,000.0,027.2,020.0,12.7,0003.0,0007.90,0005.84,0005.66
2023-11-25 19:14:00,SystemResetWarning,0828.3,5.00,000.00,018.7,017.7,000.0,027.2,020.0,12.7,0003.1,0007.98,0005.86,0005.66
2023-11-25 19:15:00,SystemResetWarning,0828.2,5.00,000.00,018.7,017.7,000.0,027.2,020.0,12.7,0003.2,0008.00,0005.86,0005.65
2023-11-25 19:16:00,SystemResetWarning,0828.3,5.00,000.00,018.7,017.7,000.0,027.2,020.0,12.6,0003.4,0008.02,0005.87,0005.65
2023-11-25 19:17:00,SystemResetWarning,0828.2,5.00,000.00,018.7,017.7,000.0,027.2,020.0,12.7,0003.6,0008.06,0005.89,0005.66
2023-11-25 19:18:00,SystemResetWarning,0828.2,5.00,000.00,018.7,017.7,000.0,027.2,020.0,12.6,0003.5,0008.11,0005.90,0005.66
2023-11-25 19:19:00,SystemResetWarning,0828.2,5.00,000.00,018.7,017.7,000.0,027.2,020.0,12.6,0003.2,0008.17,0005.94,0005.69
2023-11-25 19:20:00,SystemResetWarning,0828.2,5.00,000.00,018.7,017.7,000.0,027.2,020.0,12.6,0003.1,0008.28,0005.98,0005.70
2023-11-25 19:21:00,SystemResetWarning,0828.2,4.99,000.00,018.7,017.7,000.0,027.2,020.0,12.6,0003.4,0008.35,0006.03,0005.73
2023-11-25 19:22:00,SystemResetWarning,0828.2,5.00,000.00,018.7,017.7,000.0,027.1,020.0,12.6,0003.7,0008.37,0006.06,0005.75
2023-11-25 19:23:00,SystemResetWarning,0828.2,4.99,000.00,018.7,017.7,000.0,027.1,020.0,12.6,0003.2,0008.27,0006.04,0005.76
2023-11-25 19:24:00,SystemResetWarning,0828.1,5.00,000.00,018.7,017.7,000.0,027.1,020.0,12.5,0003.4,0008.26,0006.04,0005.77
2023-11-25 19:25:00,SystemResetWarning,0828.1,5.00,000.00,018.7,017.6,000.0,027.1,020.0,12.4,0003.4,0008.29,0006.08,0005.79
2023-11-25 19:26:00,SystemResetWarning,0828.1,5.00,000.00,018.7,017.6,000.0,027.1,020.0,12.4,0001.7,0008.31,0006.11,0005.81
2023-11-25 19:27:00,SystemResetWarning,0828.1,5.01,000.00,018.7,017.6,000.0,027.1,020.0,12.4,0002.1,0008.33,0006.12,0005.83
2023-11-25 19:28:00,SystemResetWarning,0828.1,5.00,000.00,018.7,017.6,000.0,027.1,020.0,12.5,0002.9,0008.39,0006.16,0005.85
2023-11-25 19:29:00,SystemResetWarning,0828.1,5.00,000.00,018.7,017.6,000.0,027.1,020.0,12.6,0000.0,0008.45,0006.19,0005.87
2023-11-25 19:30:00,SystemResetWarning,0828.1,5.00,000.00,018.7,017.6,000.0,027.1,020.0,12.6,0000.0,0008.46,0006.21,0005.89
2023-11-25 19:31:00,SystemResetWarning,0828.1,4.99,000.00,018.7,017.6,000.0,027.1,020.0,12.7,0000.0,0008.36,0006.18,0005.90
2023-11-25 19:32:00,SystemResetWarning,0828.1,5.00,000.00,018.7,017.6,000.0,027.1,020.1,12.7,0000.0,0008.30,0006.17,0005.91
2023-11-25 19:33:00,SystemResetWarning,0828.1,5.01,000.00,018.8,018.3,000.0,027.1,020.6,12.6,0000.0,0008.28,0006.18,0005.93
2023-11-25 19:34:00,SystemResetWarning,0828.1,5.00,000.00,019.0,019.1,000.0,027.1,021.0,12.5,0000.0,0008.34,0006.24,0005.99
2023-11-25 19:35:00,SystemResetWarning,0828.0,4.98,000.00,019.1,019.2,000.0,027.2,020.8,12.5,0000.0,0008.42,0006.30,0006.04
2023-11-25 19:36:00,SystemResetWarning,0828.0,5.01,000.00,019.0,019.0,000.0,027.2,020.5,12.6,0000.0,0008.40,0006.32,0006.08
2023-11-25 19:37:00,SystemResetWarning,0827.9,5.02,000.00,019.0,018.9,000.0,027.2,020.2,12.7,0000.0,0008.44,0006.35,0006.11
2023-11-25 19:38:00,SystemResetWarning,0827.8,4.99,000.00,018.9,018.7,000.0,027.2,020.1,12.6,0000.0,0008.49,0006.40,0006.14
2023-11-25 19:39:00,SystemResetWarning,0827.9,4.99,000.00,018.9,018.5,000.0,027.2,020.0,12.6,0000.0,0008.46,0006.42,0006.17
2023-11-25 19:40:00,SystemResetWarning,0827.8,5.00,000.00,018.9,018.4,000.0,027.2,020.0,12.6,0000.0,0008.42,0006.43,0006.20
2023-11-25 19:41:00,SystemResetWarning,0827.8,5.00,000.00,018.9,018.3,000.0,027.2,020.0,12.5,0000.0,0008.43,0006.44,0006.21
2023-11-25 19:42:00,SystemResetWarning,0827.8,5.00,000.00,018.8,018.2,000.0,027.2,020.0,12.7,0000.0,0008.50,0006.48,0006.23
2023-11-25 19:43:00,SystemResetWarning,0827.8,5.00,000.00,018.8,018.1,000.0,027.2,020.0,12.8,0000.0,0008.61,0006.52,0006.24
2023-11-25 19:44:00,SystemResetWarning,0827.8,5.00,000.00,018.8,018.1,000.0,027.2,020.0,12.8,0000.0,0008.67,0006.55,0006.26
2023-11-25 19:45:00,SystemResetWarning,0827.8,5.00,000.00,018.8,018.0,000.0,027.2,020.0,12.7,0000.0,0008.67,0006.54,0006.24
2023-11-25 19:46:00,SystemResetWarning,0827.8,5.00,000.00,018.8,018.0,000.0,027.2,020.0,12.7,0000.3,0008.67,0006.53,0006.22
2023-11-25 19:47:00,SystemResetWarning,0827.8,5.01,000.00,018.8,018.0,000.0,027.2,020.0,12.7,0001.9,0008.75,0006.53,0006.20
2023-11-25 19:48:00,SystemResetWarning,0827.9,4.99,000.00,018.8,017.9,000.0,027.2,020.0,12.6,0002.5,0008.75,0006.52,0006.18
2023-11-25 19:49:00,SystemResetWarning,0827.8,5.00,000.00,018.8,017.9,000.0,027.2,020.0,12.7,0002.7,0008.80,0006.53,0006.17
2023-11-25 19:50:00,SystemResetWarning,0827.8,4.99,000.00,018.8,017.9,000.0,027.2,020.0,12.8,0003.1,0008.82,0006.53,0006.16
2023-11-25 19:51:00,SystemResetWarning,0827.7,4.99,000.00,018.8,017.8,000.0,027.2,020.0,12.7,0003.4,0008.91,0006.55,0006.16
2023-11-25 19:52:00,SystemResetWarning,0827.8,5.00,000.00,018.7,017.8,000.0,027.2,020.0,12.7,0003.4,0008.96,0006.55,0006.16
2023-11-25 19:53:00,SystemResetWarning,0827.8,5.01,000.00,018.7,017.8,000.0,027.2,020.0,12.7,0003.6,0009.36,0006.53,0006.15
2023-11-25 19:54:00,SystemResetWarning,0827.8,5.00,000.00,018.7,017.8,000.0,027.2,020.0,12.7,0003.6,0009.27,0006.50,0006.15
2023-11-25 19:55:00,SystemResetWarning,0827.8,5.01,000.00,018.7,017.8,000.0,027.2,020.0,12.7,0003.5,0009.30,0006.51,0006.15
2023-11-25 19:56:00,SystemResetWarning,0827.8,5.00,000.00,018.7,017.7,000.0,027.2,020.0,12.6,0003.4,0009.23,0006.48,0006.14
2023-11-25 19:57:00,SystemResetWarning,0827.8,4.99,000.00,018.7,017.7,000.0,027.2,020.0,12.5,0003.2,0009.23,0006.45,0006.14
2023-11-25 19:58:00,SystemResetWarning,0827.8,4.98,000.00,018.7,017.7,000.0,027.2,020.0,12.6,0003.2,0009.14,0006.44,0006.14
2023-11-25 19:59:00,SystemResetWarning,0827.8,5.01,000.00,018.7,017.7,000.0,027.2,020.0,12.7,0002.8,0009.10,0006.42,0006.13
